Terminal Aerodrome Forecast
Issued by NWS Columbia, SC

Current Version | Previous Version | Text Only | Print | Product List | Glossary On
Versions: 1 2 3 4 5 6 7 8 9 10 11 12 13 14 15 16 17 18 19 20 21 22 23 24 25 26 27 28 29 30 31 32 33 34 35 36 37 38 39 40 41 42 43 44 45
000
FTUS42 KCAE 131400 AAB
TAFAGS
TAF AMD
KAGS 131437Z 1315/1412 VRB05KT P6SM BKN020
      TEMPO 1316/1317 SCT020 BKN035
     FM131700 VRB05KT P6SM BKN035
     FM131900 17006KT P6SM SCT040=

USA.gov is the U.S. government's official web portal to all federal, state and local government web resources and services.